VE3ZEB-1 Weather Reports


time (UTC)temp
F
wind
direction
speed
knots
gust
knots
rain 1hr
in
rain 24hr
in
rain mn
in
humidity
%
barometer
mb
20260503194017 59 283 0.9 2.6 0.00 0.00 0.00 46 679.7
20260503193037 59 301 0.9 2.6 0.00 0.00 0.00 44 679.8
20260503192017 60 307 1.7 4.3 0.00 0.00 0.00 46 679.8
20260503191017 59 294 1.7 4.3 0.00 0.00 0.00 46 679.7
20260503190018 60 266 2.6 10.4 0.00 0.00 0.00 45 679.8
20260503185032 60 264 1.7 4.3 0.00 0.00 0.00 46 679.8
20260503184032 59 286 2.6 6.1 0.00 0.00 0.00 44 679.7
20260503183018 60 276 3.5 7.8 0.00 0.00 0.00 43 679.8
20260503182019 61 298 2.6 7.0 0.00 0.00 0.00 43 679.8
20260503181018 61 307 3.5 5.2 0.00 0.00 0.00 42 679.8
20260503180018 63 271 2.6 7.0 0.00 0.00 0.00 38 679.8
20260503175039 64 300 1.7 3.5 0.00 0.00 0.00 37 679.9
20260503174018 66 293 2.6 6.1 0.00 0.00 0.00 35 679.9
20260503173039 67 273 2.6 4.3 0.00 0.00 0.00 35 679.9
20260503172019 67 282 3.5 6.1 0.00 0.00 0.00 38 679.9
20260503171019 67 303 1.7 5.2 0.00 0.00 0.00 37 679.9
20260503131022 45 234 4.3 6.1 0.00 0.00 0.00 61 679.3
20260503080956 32 312 0.9 2.6 0.00 0.00 0.00 74 679.1
20260503072047 33 246 1.7 2.6 0.00 0.00 0.00 72 679.1
20260503071027 33 243 1.7 3.5 0.00 0.00 0.00 72 679.1
20260503055028 34 229 2.6 3.5 0.00 0.00 0.00 69 679.1
20260503054028 34 233 2.6 4.3 0.00 0.00 0.00 68 679.1
20260503053048 34 241 1.7 3.5 0.00 0.00 0.00 68 679.1
20260503052029 34 230 1.7 3.5 0.00 0.00 0.00 68 679.1
20260503051029 34 237 1.7 2.6 0.00 0.00 0.00 68 679.1
20260503050029 34 220 2.6 3.5 0.00 0.00 0.00 68 679.1
20260503045049 34 220 1.7 3.5 0.00 0.00 0.00 68 679.1
20260503044029 34 239 1.7 2.6 0.00 0.00 0.00 67 679.2
20260503043029 34 231 1.7 3.5 0.00 0.00 0.00 67 679.2
20260503042050 34 234 1.7 2.6 0.00 0.00 0.00 65 679.2
20260503041050 34 236 1.7 2.6 0.00 0.00 0.00 65 679.2
20260503040030 34 254 1.7 2.6 0.00 0.00 0.00 64 679.2
20260503035030 35 247 1.7 2.6 0.00 0.00 0.00 64 679.2
20260503034030 35 243 1.7 1.7 0.00 0.00 0.00 63 679.2
20260503033030 35 241 1.7 1.7 0.00 0.00 0.00 62 679.2
20260503032030 35 237 1.7 2.6 0.00 0.00 0.00 61 679.2
20260503031030 35 228 1.7 2.6 0.00 0.00 0.00 60 679.2
20260503030031 36 234 1.7 2.6 0.00 0.00 0.00 59 679.2
20260503025031 36 247 1.7 2.6 0.00 0.00 0.00 58 679.2
20260503024031 36 248 1.7 2.6 0.00 0.00 0.00 57 679.2
20260503023031 36 266 1.7 1.7 0.00 0.00 0.00 56 679.2
20260503022031 37 265 1.7 1.7 0.00 0.00 0.00 55 679.2
20260503021031 37 273 0.9 1.7 0.00 0.00 0.00 54 679.2
20260503020031 38 296 0.9 1.7 0.00 0.00 0.00 53 679.2
20260503015031 38 306 0.9 1.7 0.00 0.00 0.00 52 679.3
20260503014031 39 280 0.9 0.9 0.00 0.00 0.00 52 679.3
20260503013032 39 292 0.9 1.7 0.00 0.00 0.00 51 679.3
20260503012032 40 279 0.9 1.7 0.00 0.00 0.00 51 679.3
20260503011031 41 278 0.9 0.9 0.00 0.00 0.00 49 679.3
20260503010112 41 260 0.9 0.9 0.00 0.00 0.00 48 679.3
20260503005032 42 264 0.9 0.9 0.00 0.00 0.00 48 679.3
20260503004032 42 299 0.9 0.9 0.00 0.00 0.00 47 679.3
20260503003032 43 263 0.9 0.9 0.00 0.00 0.00 46 679.4
20260503002032 44 304 0.9 1.7 0.00 0.00 0.00 44 679.4
20260503001113 44 325 0.9 1.7 0.00 0.00 0.00 42 679.4
20260503000018 45 319 1.7 3.5 0.00 0.00 0.00 42 679.4
20260502235033 45 333 1.7 3.5 0.00 0.00 0.00 40 679.4
20260502234018 46 321 2.6 5.2 0.00 0.00 0.00 39 679.4
20260502233038 47 332 1.7 3.5 0.00 0.00 0.00 39 679.4
20260502232038 47 326 3.5 5.2 0.00 0.00 0.00 38 679.5
20260502231018 47 327 2.6 5.2 0.00 0.00 0.00 36 679.5
20260502230018 48 337 3.5 5.2 0.00 0.00 0.00 36 679.5
20260502225019 48 342 2.6 6.1 0.00 0.00 0.00 35 679.5
20260502224019 49 324 3.5 7.0 0.00 0.00 0.00 36 679.5
20260502223019 49 349 3.5 6.1 0.00 0.00 0.00 35 679.5
20260502222019 50 336 2.6 5.2 0.00 0.00 0.00 35 679.5
20260502221019 51 342 1.7 5.2 0.00 0.00 0.00 34 679.5
20260502220019 51 2 3.5 7.0 0.00 0.00 0.00 32 679.5
20260502215019 51 353 3.5 5.2 0.00 0.00 0.00 33 679.5
20260502214020 51 8 4.3 7.0 0.00 0.00 0.00 31 679.5
20260502213019 51 343 5.2 7.8 0.00 0.00 0.00 33 679.5
20260502212020 52 342 3.5 5.2 0.00 0.00 0.00 34 679.5
20260502211020 52 342 3.5 7.8 0.00 0.00 0.00 34 679.5
20260502210020 52 351 3.5 8.7 0.00 0.00 0.00 35 679.5
20260502205020 52 338 3.5 7.8 0.00 0.00 0.00 36 679.5
20260502204020 52 335 4.3 7.8 0.00 0.00 0.00 38 679.5
20260502203020 52 323 4.3 7.0 0.00 0.00 0.00 38 679.5
20260502202101 51 336 3.5 6.1 0.00 0.00 0.00 39 679.5
20260502201021 51 314 3.5 8.7 0.00 0.00 0.00 39 679.5
20260502200021 51 356 3.5 7.0 0.00 0.00 0.00 37 679.5
20260502195021 51 339 2.6 4.3 0.00 0.00 0.00 39 679.5